User: anonymous   Login
Location: ??
(31.9467°N, 34.8903°E)
Time: 06:50:59
(UTC+00:00)
Language:

ASTRO E2 - Orbit

View from above orbital plane
View from above orbital plane
View from above satellite
View from above satellite

Ground track
Ground track

The orbit data is extracted from the following two-line orbital elements,

1 28773U 05025A   21015.84089062  .00000977  00000-0  42545-4 0  9992
2 28773  31.3826  75.2656 0004511 186.5391 173.5198 15.18013539856253
Epoch (UTC): 15 January 2021 20:10:52
Eccentricity: 0.0004511
inclination: 31.3826°
perigee height: 509 km
apogee height: 515 km
right ascension of ascending node: 75.2656°
argument of perigee: 186.5391°
revolutions per day: 15.18013539
mean anomaly at epoch: 173.5198°
orbit number at epoch: 85625

The dashed part of the orbit path shows where the satellite is in the earth's shadow,  

DLR